Year,Month,Day,Hour,Minute,Value (Times are PST for temperature in C)
2018,10,21,00,00,5.30
2018,10,21,00,01,5.30
2018,10,21,00,02,5.30
2018,10,21,00,03,5.30
2018,10,21,00,04,5.30
2018,10,21,00,05,5.30
2018,10,21,00,06,5.30
2018,10,21,00,07,5.30
2018,10,21,00,08,5.30
2018,10,21,00,09,5.20
2018,10,21,00,10,5.20
2018,10,21,00,11,5.20
2018,10,21,00,12,5.20
2018,10,21,00,13,5.20
2018,10,21,00,14,5.20
2018,10,21,00,15,5.20
2018,10,21,00,16,5.20
2018,10,21,00,17,5.20
2018,10,21,00,18,5.20
2018,10,21,00,19,5.20
2018,10,21,00,20,5.20
2018,10,21,00,21,5.20
2018,10,21,00,22,5.20
2018,10,21,00,23,5.20
2018,10,21,00,24,5.20
2018,10,21,00,25,5.20
2018,10,21,00,26,5.20
2018,10,21,00,27,5.20
2018,10,21,00,28,5.20
2018,10,21,00,29,5.20
2018,10,21,00,30,5.20
2018,10,21,00,31,5.20
2018,10,21,00,32,5.20
2018,10,21,00,33,5.20
2018,10,21,00,34,5.20
2018,10,21,00,35,5.20
2018,10,21,00,36,5.20
2018,10,21,00,37,5.20
2018,10,21,00,38,5.20
2018,10,21,00,39,5.10
2018,10,21,00,40,5.10
2018,10,21,00,41,5.10
2018,10,21,00,42,5.10
2018,10,21,00,43,5.10
2018,10,21,00,44,5.10
2018,10,21,00,45,5.10
2018,10,21,00,46,5.10
2018,10,21,00,47,5.10
2018,10,21,00,48,5.00
2018,10,21,00,49,5.00
2018,10,21,00,50,5.00
2018,10,21,00,51,5.00
2018,10,21,00,52,5.00
2018,10,21,00,53,4.90
2018,10,21,00,54,4.90
2018,10,21,00,55,4.90
2018,10,21,00,56,4.90
2018,10,21,00,57,4.90
2018,10,21,00,58,4.90
2018,10,21,00,59,4.90
2018,10,21,01,00,4.80
2018,10,21,01,01,4.80
2018,10,21,01,02,4.80
2018,10,21,01,03,4.80
2018,10,21,01,04,4.80
2018,10,21,01,05,4.70
2018,10,21,01,06,4.70
2018,10,21,01,07,4.70
2018,10,21,01,08,4.70
2018,10,21,01,09,4.70
2018,10,21,01,10,4.60
2018,10,21,01,11,4.60
2018,10,21,01,12,4.60
2018,10,21,01,13,4.60
2018,10,21,01,14,4.60
2018,10,21,01,15,4.50
2018,10,21,01,16,4.50
2018,10,21,01,17,4.50
2018,10,21,01,18,4.50
2018,10,21,01,19,4.50
2018,10,21,01,20,4.50
2018,10,21,01,21,4.50
2018,10,21,01,22,4.50
2018,10,21,01,23,4.60
2018,10,21,01,24,4.60
2018,10,21,01,25,4.60
2018,10,21,01,26,4.60
2018,10,21,01,27,4.60
2018,10,21,01,28,4.60
2018,10,21,01,29,4.50
2018,10,21,01,30,4.50
2018,10,21,01,31,4.50
2018,10,21,01,32,4.50
2018,10,21,01,33,4.40
2018,10,21,01,34,4.40
2018,10,21,01,35,4.40
2018,10,21,01,36,4.40
2018,10,21,01,37,4.40
2018,10,21,01,38,4.40
2018,10,21,01,39,4.40
2018,10,21,01,40,4.40
2018,10,21,01,41,4.40
2018,10,21,01,42,4.30
2018,10,21,01,43,4.30
2018,10,21,01,44,4.30
2018,10,21,01,45,4.30
2018,10,21,01,46,4.30
2018,10,21,01,47,4.30
2018,10,21,01,48,4.30
2018,10,21,01,49,4.20
2018,10,21,01,50,4.20
2018,10,21,01,51,4.20
2018,10,21,01,52,4.20
2018,10,21,01,53,4.20
2018,10,21,01,54,4.20
2018,10,21,01,55,4.20
2018,10,21,01,56,4.20
2018,10,21,01,57,4.20
2018,10,21,01,58,4.20
2018,10,21,01,59,4.30
2018,10,21,02,00,4.30
2018,10,21,02,01,4.30
2018,10,21,02,02,4.30
2018,10,21,02,03,4.30
2018,10,21,02,04,4.30
2018,10,21,02,05,4.20
2018,10,21,02,06,4.20
2018,10,21,02,07,4.20
2018,10,21,02,08,4.20
2018,10,21,02,09,4.20
2018,10,21,02,10,4.20
2018,10,21,02,11,4.20
2018,10,21,02,12,4.20
2018,10,21,02,13,4.20
2018,10,21,02,14,4.20
2018,10,21,02,15,4.20
2018,10,21,02,16,4.20
2018,10,21,02,17,4.20
2018,10,21,02,18,4.20
2018,10,21,02,19,4.20
2018,10,21,02,20,4.20
2018,10,21,02,21,4.20
2018,10,21,02,22,4.20
2018,10,21,02,23,4.20
2018,10,21,02,24,4.20
2018,10,21,02,25,4.10
2018,10,21,02,26,4.10
2018,10,21,02,27,4.10
2018,10,21,02,28,4.10
2018,10,21,02,29,4.10
2018,10,21,02,30,4.00
2018,10,21,02,31,4.00
2018,10,21,02,32,4.00
2018,10,21,02,33,4.00
2018,10,21,02,34,4.00
2018,10,21,02,35,3.90
2018,10,21,02,36,3.90
2018,10,21,02,37,3.90
2018,10,21,02,38,3.90
2018,10,21,02,39,3.90
2018,10,21,02,40,3.90
2018,10,21,02,41,3.90
2018,10,21,02,42,3.80
2018,10,21,02,43,3.80
2018,10,21,02,44,3.80
2018,10,21,02,45,3.80
2018,10,21,02,46,3.80
2018,10,21,02,47,3.80
2018,10,21,02,48,3.80
2018,10,21,02,49,3.80
2018,10,21,02,50,3.80
2018,10,21,02,51,3.80
2018,10,21,02,52,3.80
2018,10,21,02,53,3.80
2018,10,21,02,54,3.80
2018,10,21,02,55,3.80
2018,10,21,02,56,3.70
2018,10,21,02,57,3.70
2018,10,21,02,58,3.70
2018,10,21,02,59,3.70
2018,10,21,03,00,3.70
2018,10,21,03,01,3.70
2018,10,21,03,02,3.70
2018,10,21,03,03,3.60
2018,10,21,03,04,3.60
2018,10,21,03,05,3.60
2018,10,21,03,06,3.60
2018,10,21,03,07,3.60
2018,10,21,03,08,3.60
2018,10,21,03,09,3.60
2018,10,21,03,10,3.60
2018,10,21,03,11,3.60
2018,10,21,03,12,3.60
2018,10,21,03,13,3.60
2018,10,21,03,14,3.60
2018,10,21,03,15,3.60
2018,10,21,03,16,3.50
2018,10,21,03,17,3.50
2018,10,21,03,18,3.50
2018,10,21,03,19,3.50
2018,10,21,03,20,3.50
2018,10,21,03,21,3.40
2018,10,21,03,22,3.40
2018,10,21,03,23,3.40
2018,10,21,03,24,3.40
2018,10,21,03,25,3.40
2018,10,21,03,26,3.40
2018,10,21,03,27,3.40
2018,10,21,03,28,3.30
2018,10,21,03,29,3.30
2018,10,21,03,30,3.30
2018,10,21,03,31,3.30
2018,10,21,03,32,3.30
2018,10,21,03,33,3.30
2018,10,21,03,34,3.30
2018,10,21,03,35,3.30
2018,10,21,03,36,3.30
2018,10,21,03,37,3.30
2018,10,21,03,38,3.30
2018,10,21,03,39,3.30
2018,10,21,03,40,3.30
2018,10,21,03,41,3.30
2018,10,21,03,42,3.30
2018,10,21,03,43,3.30
2018,10,21,03,44,3.30
2018,10,21,03,45,3.30
2018,10,21,03,46,3.30
2018,10,21,03,47,3.30
2018,10,21,03,48,3.30
2018,10,21,03,49,3.30
2018,10,21,03,50,3.30
2018,10,21,03,51,3.30
2018,10,21,03,52,3.30
2018,10,21,03,53,3.30
2018,10,21,03,54,3.30
2018,10,21,03,55,3.30
2018,10,21,03,56,3.30
2018,10,21,03,57,3.30
2018,10,21,03,58,3.30
2018,10,21,03,59,3.30
2018,10,21,04,00,3.30
2018,10,21,04,01,3.30
2018,10,21,04,02,3.30
2018,10,21,04,03,3.30
2018,10,21,04,04,3.30
2018,10,21,04,05,3.30
2018,10,21,04,06,3.30
2018,10,21,04,07,3.30
2018,10,21,04,08,3.30
2018,10,21,04,09,3.30
2018,10,21,04,10,3.30
2018,10,21,04,11,3.30
2018,10,21,04,12,3.40
2018,10,21,04,13,3.40
2018,10,21,04,14,3.40
2018,10,21,04,15,3.40
2018,10,21,04,16,3.40
2018,10,21,04,17,3.40
2018,10,21,04,18,3.40
2018,10,21,04,19,3.30
2018,10,21,04,20,3.30
2018,10,21,04,21,3.30
2018,10,21,04,22,3.30
2018,10,21,04,23,3.30
2018,10,21,04,24,3.30
2018,10,21,04,25,3.30
2018,10,21,04,26,3.30
2018,10,21,04,27,3.30
2018,10,21,04,28,3.30
2018,10,21,04,29,3.30
2018,10,21,04,30,3.30
2018,10,21,04,31,3.30
2018,10,21,04,32,3.30
2018,10,21,04,33,3.30
2018,10,21,04,34,3.30
2018,10,21,04,35,3.30
2018,10,21,04,36,3.30
2018,10,21,04,37,3.40
2018,10,21,04,38,3.40
2018,10,21,04,39,3.40
2018,10,21,04,40,3.40
2018,10,21,04,41,3.40
2018,10,21,04,42,3.40
2018,10,21,04,43,3.40
2018,10,21,04,44,3.30
2018,10,21,04,45,3.30
2018,10,21,04,46,3.30
2018,10,21,04,47,3.30
2018,10,21,04,48,3.30
2018,10,21,04,49,3.30
2018,10,21,04,50,3.30
2018,10,21,04,51,3.30
2018,10,21,04,52,3.30
2018,10,21,04,53,3.30
2018,10,21,04,54,3.30
2018,10,21,04,55,3.30
2018,10,21,04,56,3.30
2018,10,21,04,57,3.30
2018,10,21,04,58,3.30
2018,10,21,04,59,3.30
2018,10,21,05,00,3.30
2018,10,21,05,01,3.30
2018,10,21,05,02,3.30
2018,10,21,05,03,3.30
2018,10,21,05,04,3.30
2018,10,21,05,05,3.30
2018,10,21,05,06,3.30
2018,10,21,05,07,3.30
2018,10,21,05,08,3.30
2018,10,21,05,09,3.30
2018,10,21,05,10,3.30
2018,10,21,05,11,3.30
2018,10,21,05,12,3.20
2018,10,21,05,13,3.20
2018,10,21,05,14,3.20
2018,10,21,05,15,3.20
2018,10,21,05,16,3.20
2018,10,21,05,17,3.20
2018,10,21,05,18,3.10
2018,10,21,05,19,3.10
2018,10,21,05,20,3.10
2018,10,21,05,21,3.10
2018,10,21,05,22,3.00
2018,10,21,05,23,3.00
2018,10,21,05,24,3.00
2018,10,21,05,25,2.90
2018,10,21,05,26,2.90
2018,10,21,05,27,2.90
2018,10,21,05,28,2.80
2018,10,21,05,29,2.80
2018,10,21,05,30,2.80
2018,10,21,05,31,2.80
2018,10,21,05,32,2.80
2018,10,21,05,33,2.80
2018,10,21,05,34,2.80
2018,10,21,05,35,2.80
2018,10,21,05,36,2.70
2018,10,21,05,37,2.70
2018,10,21,05,38,2.70
2018,10,21,05,39,2.70
2018,10,21,05,40,2.70
2018,10,21,05,41,2.70
2018,10,21,05,42,2.70
2018,10,21,05,43,2.70
2018,10,21,05,44,2.70
2018,10,21,05,45,2.60
2018,10,21,05,46,2.60
2018,10,21,05,47,2.60
2018,10,21,05,48,2.60
2018,10,21,05,49,2.60
2018,10,21,05,50,2.60
2018,10,21,05,51,2.60
2018,10,21,05,52,2.60
2018,10,21,05,53,2.60
2018,10,21,05,54,2.60
2018,10,21,05,55,2.60
2018,10,21,05,56,2.60
2018,10,21,05,57,2.60
2018,10,21,05,58,2.60
2018,10,21,05,59,2.60
2018,10,21,06,00,2.50
2018,10,21,06,01,2.50
2018,10,21,06,02,2.50
2018,10,21,06,03,2.60
2018,10,21,06,04,2.60
2018,10,21,06,05,2.60
2018,10,21,06,06,2.60
2018,10,21,06,07,2.60
2018,10,21,06,08,2.60
2018,10,21,06,09,2.60
2018,10,21,06,10,2.60
2018,10,21,06,11,2.60
2018,10,21,06,12,2.60
2018,10,21,06,13,2.60
2018,10,21,06,14,2.60
2018,10,21,06,15,2.60
2018,10,21,06,16,2.60
2018,10,21,06,17,2.60
2018,10,21,06,18,2.60
2018,10,21,06,19,2.60
2018,10,21,06,20,2.60
2018,10,21,06,21,2.60
2018,10,21,06,22,2.60
2018,10,21,06,23,2.60
2018,10,21,06,24,2.60
2018,10,21,06,25,2.60
2018,10,21,06,26,2.60
2018,10,21,06,27,2.60
2018,10,21,06,28,2.60
2018,10,21,06,29,2.60
2018,10,21,06,30,2.60
2018,10,21,06,31,2.60
2018,10,21,06,32,2.60
2018,10,21,06,33,2.60
2018,10,21,06,34,2.60
2018,10,21,06,35,2.60
2018,10,21,06,36,2.60
2018,10,21,06,37,2.50
2018,10,21,06,38,2.50
2018,10,21,06,39,2.50
2018,10,21,06,40,2.40
2018,10,21,06,41,2.40
2018,10,21,06,42,2.40
2018,10,21,06,43,2.40
2018,10,21,06,44,2.40
2018,10,21,06,45,2.30
2018,10,21,06,46,2.30
2018,10,21,06,47,2.30
2018,10,21,06,48,2.30
2018,10,21,06,49,2.30
2018,10,21,06,50,2.30
2018,10,21,06,51,2.30
2018,10,21,06,52,2.30
2018,10,21,06,53,2.20
2018,10,21,06,54,2.20
2018,10,21,06,55,2.20
2018,10,21,06,56,2.30
2018,10,21,06,57,2.30
2018,10,21,06,58,2.30
2018,10,21,06,59,2.30
2018,10,21,07,00,2.40
2018,10,21,07,01,2.40
2018,10,21,07,02,2.40
2018,10,21,07,03,2.50
2018,10,21,07,04,2.50
2018,10,21,07,05,2.50
2018,10,21,07,06,2.60
2018,10,21,07,07,2.60
2018,10,21,07,08,2.60
2018,10,21,07,09,2.70
2018,10,21,07,10,2.70
2018,10,21,07,11,2.70
2018,10,21,07,12,2.70
2018,10,21,07,13,2.70
2018,10,21,07,14,2.70
2018,10,21,07,15,2.70
2018,10,21,07,16,2.70
2018,10,21,07,17,2.70
2018,10,21,07,18,2.80
2018,10,21,07,19,2.80
2018,10,21,07,20,2.80
2018,10,21,07,21,2.80
2018,10,21,07,22,2.80
2018,10,21,07,23,2.80
2018,10,21,07,24,2.80
2018,10,21,07,25,2.80
2018,10,21,07,26,2.70
2018,10,21,07,27,2.70
2018,10,21,07,28,2.70
2018,10,21,07,29,2.70
2018,10,21,07,30,2.70
2018,10,21,07,31,2.70
2018,10,21,07,32,2.70
2018,10,21,07,33,2.70
2018,10,21,07,34,2.70
2018,10,21,07,35,2.70
2018,10,21,07,36,2.70
2018,10,21,07,37,2.70
2018,10,21,07,38,2.70
2018,10,21,07,39,2.70
2018,10,21,07,40,2.70
2018,10,21,07,41,2.70
2018,10,21,07,42,2.70
2018,10,21,07,43,2.70
2018,10,21,07,44,2.70
2018,10,21,07,45,2.70
2018,10,21,07,46,2.70
2018,10,21,07,47,2.70
2018,10,21,07,48,2.70
2018,10,21,07,49,2.70
2018,10,21,07,50,2.70
2018,10,21,07,51,2.70
2018,10,21,07,52,2.70
2018,10,21,07,53,2.70
2018,10,21,07,54,2.70
2018,10,21,07,55,2.70
2018,10,21,07,56,2.70
2018,10,21,07,57,2.70
2018,10,21,07,58,2.70
2018,10,21,07,59,2.70
2018,10,21,08,00,2.70
2018,10,21,08,01,2.60
2018,10,21,08,02,2.60
2018,10,21,08,03,2.60
2018,10,21,08,04,2.60
2018,10,21,08,05,2.60
2018,10,21,08,06,2.60
2018,10,21,08,07,2.60
2018,10,21,08,08,2.60
2018,10,21,08,09,2.60
2018,10,21,08,10,2.60
2018,10,21,08,11,2.70
2018,10,21,08,12,2.70
2018,10,21,08,13,2.70
2018,10,21,08,14,2.70
2018,10,21,08,15,2.70
2018,10,21,08,16,2.80
2018,10,21,08,17,2.80
2018,10,21,08,18,2.80
2018,10,21,08,19,2.80
2018,10,21,08,20,2.90
2018,10,21,08,21,2.90
2018,10,21,08,22,3.00
2018,10,21,08,23,3.00
2018,10,21,08,24,3.10
2018,10,21,08,25,3.20
2018,10,21,08,26,3.30
2018,10,21,08,27,3.40
2018,10,21,08,28,3.40
2018,10,21,08,29,3.50
2018,10,21,08,30,3.60
2018,10,21,08,31,3.60
2018,10,21,08,32,3.60
2018,10,21,08,33,3.60
2018,10,21,08,34,3.60
2018,10,21,08,35,3.60
2018,10,21,08,36,3.60
2018,10,21,08,37,3.50
2018,10,21,08,38,3.50
2018,10,21,08,39,3.50
2018,10,21,08,40,3.50
2018,10,21,08,41,3.50
2018,10,21,08,42,3.50
2018,10,21,08,43,3.40
2018,10,21,08,44,3.40
2018,10,21,08,45,3.40
2018,10,21,08,46,3.50
2018,10,21,08,47,3.50
2018,10,21,08,48,3.60
2018,10,21,08,49,3.70
2018,10,21,08,50,3.80
2018,10,21,08,51,3.90
2018,10,21,08,52,4.00
2018,10,21,08,53,4.00
2018,10,21,08,54,4.10
2018,10,21,08,55,4.20
2018,10,21,08,56,4.30
2018,10,21,08,57,4.40
2018,10,21,08,58,4.40
2018,10,21,08,59,4.50
2018,10,21,09,00,4.50
2018,10,21,09,01,4.50
2018,10,21,09,02,4.50
2018,10,21,09,03,4.60
2018,10,21,09,04,4.60
2018,10,21,09,05,4.70
2018,10,21,09,06,4.70
2018,10,21,09,07,4.80
2018,10,21,09,08,4.90
2018,10,21,09,09,5.00
2018,10,21,09,10,5.00
2018,10,21,09,11,5.10
2018,10,21,09,12,5.10
2018,10,21,09,13,5.20
2018,10,21,09,14,5.30
2018,10,21,09,15,5.40
2018,10,21,09,16,5.40
2018,10,21,09,17,5.50
2018,10,21,09,18,5.50
2018,10,21,09,19,5.60
2018,10,21,09,20,5.60
2018,10,21,09,21,5.70
2018,10,21,09,22,5.80
2018,10,21,09,23,5.90
2018,10,21,09,24,6.00
2018,10,21,09,25,6.00
2018,10,21,09,26,6.10
2018,10,21,09,27,6.20
2018,10,21,09,28,6.20
2018,10,21,09,29,6.30
2018,10,21,09,30,6.30
2018,10,21,09,31,6.40
2018,10,21,09,32,6.50
2018,10,21,09,33,6.60
2018,10,21,09,34,6.70
2018,10,21,09,35,6.80
2018,10,21,09,36,6.90
2018,10,21,09,37,6.90
2018,10,21,09,38,7.00
2018,10,21,09,39,7.10
2018,10,21,09,40,7.20
2018,10,21,09,41,7.20
2018,10,21,09,42,7.30
2018,10,21,09,43,7.30
2018,10,21,09,44,7.40
2018,10,21,09,45,7.50
2018,10,21,09,46,7.60
2018,10,21,09,47,7.60
2018,10,21,09,48,7.70
2018,10,21,09,49,7.70
2018,10,21,09,50,7.80
2018,10,21,09,51,7.90
2018,10,21,09,52,8.00
2018,10,21,09,53,8.10
2018,10,21,09,54,8.20
2018,10,21,09,55,8.30
2018,10,21,09,56,8.40
2018,10,21,09,57,8.50
2018,10,21,09,58,8.60
2018,10,21,09,59,8.70
2018,10,21,10,00,8.80
2018,10,21,10,01,8.90
2018,10,21,10,02,9.00
2018,10,21,10,03,9.10
2018,10,21,10,04,9.20
2018,10,21,10,05,9.20
2018,10,21,10,06,9.30
2018,10,21,10,07,9.40
2018,10,21,10,08,9.50
2018,10,21,10,09,9.60
2018,10,21,10,10,9.70
2018,10,21,10,11,9.80
2018,10,21,10,12,9.90
2018,10,21,10,13,10.00
2018,10,21,10,14,10.10
2018,10,21,10,15,10.10
2018,10,21,10,16,10.20
2018,10,21,10,17,10.30
2018,10,21,10,18,10.40
2018,10,21,10,19,10.50
2018,10,21,10,20,10.60
2018,10,21,10,21,10.70
2018,10,21,10,22,10.80
2018,10,21,10,23,10.90
2018,10,21,10,24,10.90
2018,10,21,10,25,11.00
2018,10,21,10,26,11.10
2018,10,21,10,27,11.10
2018,10,21,10,28,11.20
2018,10,21,10,29,11.30
2018,10,21,10,30,11.40
2018,10,21,10,31,11.40
2018,10,21,10,32,11.50
2018,10,21,10,33,11.60
2018,10,21,10,34,11.70
2018,10,21,10,35,11.80
2018,10,21,10,36,11.90
2018,10,21,10,37,12.10
2018,10,21,10,38,12.20
2018,10,21,10,39,12.30
2018,10,21,10,40,12.40
2018,10,21,10,41,12.50
2018,10,21,10,42,12.60
2018,10,21,10,43,12.70
2018,10,21,10,44,12.80
2018,10,21,10,45,12.80
2018,10,21,10,46,12.90
2018,10,21,10,47,13.00
2018,10,21,10,48,13.10
2018,10,21,10,49,13.10
2018,10,21,10,50,13.10
2018,10,21,10,51,13.20
2018,10,21,10,52,13.20
2018,10,21,10,53,13.20
2018,10,21,10,54,13.20
2018,10,21,10,55,13.20
2018,10,21,10,56,13.30
2018,10,21,10,57,13.30
2018,10,21,10,58,13.40
2018,10,21,10,59,13.40
2018,10,21,11,00,13.50
2018,10,21,11,01,13.60
2018,10,21,11,02,13.70
2018,10,21,11,03,13.80
2018,10,21,11,04,13.90
2018,10,21,11,05,13.90
2018,10,21,11,06,13.90
2018,10,21,11,07,13.90
2018,10,21,11,08,13.90
2018,10,21,11,09,13.90
2018,10,21,11,10,13.90
2018,10,21,11,11,13.80
2018,10,21,11,12,13.80
2018,10,21,11,13,13.90
2018,10,21,11,14,13.90
2018,10,21,11,15,13.90
2018,10,21,11,16,13.90
2018,10,21,11,17,13.90
2018,10,21,11,18,13.90
2018,10,21,11,19,13.90
2018,10,21,11,20,13.90
2018,10,21,11,21,14.00
2018,10,21,11,22,14.00
2018,10,21,11,23,14.00
2018,10,21,11,24,14.10
2018,10,21,11,25,14.10
2018,10,21,11,26,14.10
2018,10,21,11,27,14.10
2018,10,21,11,28,14.20
2018,10,21,11,29,14.20
2018,10,21,11,30,14.20
2018,10,21,11,31,14.20
2018,10,21,11,32,14.20
2018,10,21,11,33,14.20
2018,10,21,11,34,14.20
2018,10,21,11,35,14.30
2018,10,21,11,36,14.30
2018,10,21,11,37,14.30
2018,10,21,11,38,14.40
2018,10,21,11,39,14.40
2018,10,21,11,40,14.40
2018,10,21,11,41,14.50
2018,10,21,11,42,14.60
2018,10,21,11,43,14.70
2018,10,21,11,44,14.70
2018,10,21,11,45,14.80
2018,10,21,11,46,14.80
2018,10,21,11,47,14.80
2018,10,21,11,48,14.80
2018,10,21,11,49,14.80
2018,10,21,11,50,14.90
2018,10,21,11,51,14.90
2018,10,21,11,52,15.00
2018,10,21,11,53,15.00
2018,10,21,11,54,15.00
2018,10,21,11,55,15.10
2018,10,21,11,56,15.20
2018,10,21,11,57,15.30
2018,10,21,11,58,15.30
2018,10,21,11,59,15.40
2018,10,21,12,00,15.40
2018,10,21,12,01,15.40
2018,10,21,12,02,15.40
2018,10,21,12,03,15.40
2018,10,21,12,04,15.40
2018,10,21,12,05,15.40
2018,10,21,12,06,15.30
2018,10,21,12,07,15.30
2018,10,21,12,08,15.30
2018,10,21,12,09,15.30
2018,10,21,12,10,15.30
2018,10,21,12,11,15.30
2018,10,21,12,12,15.30
2018,10,21,12,13,15.40
2018,10,21,12,14,15.40
2018,10,21,12,15,15.40
2018,10,21,12,16,15.40
2018,10,21,12,17,15.40
2018,10,21,12,18,15.30
2018,10,21,12,19,15.30
2018,10,21,12,20,15.30
2018,10,21,12,21,15.30
2018,10,21,12,22,15.30
2018,10,21,12,23,15.30
2018,10,21,12,24,15.30
2018,10,21,12,25,15.40
2018,10,21,12,26,15.40
2018,10,21,12,27,15.40
2018,10,21,12,28,15.40
2018,10,21,12,29,15.40
2018,10,21,12,30,15.50
2018,10,21,12,31,15.50
2018,10,21,12,32,15.50
2018,10,21,12,33,15.50
2018,10,21,12,34,15.60
2018,10,21,12,35,15.60
2018,10,21,12,36,15.60
2018,10,21,12,37,15.60
2018,10,21,12,38,15.60
2018,10,21,12,39,15.60
2018,10,21,12,40,15.60
2018,10,21,12,41,15.60
2018,10,21,12,42,15.50
2018,10,21,12,43,15.50
2018,10,21,12,44,15.50
2018,10,21,12,45,15.50
2018,10,21,12,46,15.50
2018,10,21,12,47,15.40
2018,10,21,12,48,15.40
2018,10,21,12,49,15.40
2018,10,21,12,50,15.40
2018,10,21,12,51,15.40
2018,10,21,12,52,15.40
2018,10,21,12,53,15.30
2018,10,21,12,54,15.30
2018,10,21,12,55,15.40
2018,10,21,12,56,15.40
2018,10,21,12,57,15.40
2018,10,21,12,58,15.50
2018,10,21,12,59,15.50
2018,10,21,13,00,15.60
2018,10,21,13,01,15.70
2018,10,21,13,02,15.80
2018,10,21,13,03,15.80
2018,10,21,13,04,15.80
2018,10,21,13,05,15.80
2018,10,21,13,06,15.80
2018,10,21,13,07,15.80
2018,10,21,13,08,15.90
2018,10,21,13,09,16.00
2018,10,21,13,10,16.00
2018,10,21,13,11,16.10
2018,10,21,13,12,16.00
2018,10,21,13,13,16.00
2018,10,21,13,14,16.00
2018,10,21,13,15,16.00
2018,10,21,13,16,16.00
2018,10,21,13,17,15.90
2018,10,21,13,18,15.90
2018,10,21,13,19,15.90
2018,10,21,13,20,15.90
2018,10,21,13,21,15.80
2018,10,21,13,22,15.80
2018,10,21,13,23,15.80
2018,10,21,13,24,15.80
2018,10,21,13,25,15.80
2018,10,21,13,26,15.80
2018,10,21,13,27,15.80
2018,10,21,13,28,15.80
2018,10,21,13,29,15.80
2018,10,21,13,30,15.80
2018,10,21,13,31,15.80
2018,10,21,13,32,15.80
2018,10,21,13,33,15.80
2018,10,21,13,34,15.80
2018,10,21,13,35,15.70
2018,10,21,13,36,15.70
2018,10,21,13,37,15.60
2018,10,21,13,38,15.60
2018,10,21,13,39,15.70
2018,10,21,13,40,15.60
2018,10,21,13,41,15.60
2018,10,21,13,42,15.60
2018,10,21,13,43,15.70
2018,10,21,13,44,15.70
2018,10,21,13,45,15.70
2018,10,21,13,46,15.60
2018,10,21,13,47,15.70
2018,10,21,13,48,15.70
2018,10,21,13,49,15.70
2018,10,21,13,50,15.70
2018,10,21,13,51,15.70
2018,10,21,13,52,15.70
2018,10,21,13,53,15.70
2018,10,21,13,54,15.80
2018,10,21,13,55,15.80
2018,10,21,13,56,15.90
2018,10,21,13,57,15.90
2018,10,21,13,58,16.00
2018,10,21,13,59,16.00
2018,10,21,14,00,15.90
2018,10,21,14,01,15.90
2018,10,21,14,02,15.90
2018,10,21,14,03,15.90
2018,10,21,14,04,15.90
2018,10,21,14,05,15.90
2018,10,21,14,06,15.90
2018,10,21,14,07,15.90
2018,10,21,14,08,15.90
2018,10,21,14,09,15.90
2018,10,21,14,10,15.90
2018,10,21,14,11,15.80
2018,10,21,14,12,15.80
2018,10,21,14,13,15.80
2018,10,21,14,14,15.90
2018,10,21,14,15,15.90
2018,10,21,14,16,15.90
2018,10,21,14,17,15.90
2018,10,21,14,18,15.90
2018,10,21,14,19,15.90
2018,10,21,14,20,15.90
2018,10,21,14,21,15.90
2018,10,21,14,22,15.90
2018,10,21,14,23,15.90
2018,10,21,14,24,15.90
2018,10,21,14,25,15.90
2018,10,21,14,26,15.90
2018,10,21,14,27,15.80
2018,10,21,14,28,15.80
2018,10,21,14,29,15.80
2018,10,21,14,30,15.70
2018,10,21,14,31,15.70
2018,10,21,14,32,15.70
2018,10,21,14,33,15.80
2018,10,21,14,34,15.80
2018,10,21,14,35,15.80
2018,10,21,14,36,15.90
2018,10,21,14,37,15.90
2018,10,21,14,38,16.00
2018,10,21,14,39,16.00
2018,10,21,14,40,16.10
2018,10,21,14,41,16.10
2018,10,21,14,42,16.10
2018,10,21,14,43,16.10
2018,10,21,14,44,16.20
2018,10,21,14,45,16.20
2018,10,21,14,46,16.20
2018,10,21,14,47,16.30
2018,10,21,14,48,16.30
2018,10,21,14,49,16.30
2018,10,21,14,50,16.40
2018,10,21,14,51,16.40
2018,10,21,14,52,16.40
2018,10,21,14,53,16.40
2018,10,21,14,54,16.40
2018,10,21,14,55,16.40
2018,10,21,14,56,16.30
2018,10,21,14,57,16.30
2018,10,21,14,58,16.40
2018,10,21,14,59,16.40
2018,10,21,15,00,16.30
2018,10,21,15,01,16.40
2018,10,21,15,02,16.40
2018,10,21,15,03,16.50
2018,10,21,15,04,16.50
2018,10,21,15,05,16.60
2018,10,21,15,06,16.50
2018,10,21,15,07,16.50
2018,10,21,15,08,16.50
2018,10,21,15,09,16.50
2018,10,21,15,10,16.60
2018,10,21,15,11,16.60
2018,10,21,15,12,16.60
2018,10,21,15,13,16.70
2018,10,21,15,14,16.70
2018,10,21,15,15,16.80
2018,10,21,15,16,16.80
2018,10,21,15,17,16.90
2018,10,21,15,18,16.80
2018,10,21,15,19,16.80
2018,10,21,15,20,16.80
2018,10,21,15,21,16.80
2018,10,21,15,22,16.80
2018,10,21,15,23,16.90
2018,10,21,15,24,16.90
2018,10,21,15,25,16.90
2018,10,21,15,26,16.90
2018,10,21,15,27,16.90
2018,10,21,15,28,16.90
2018,10,21,15,29,16.90
2018,10,21,15,30,17.00
2018,10,21,15,31,17.00
2018,10,21,15,32,17.10
2018,10,21,15,33,17.10
2018,10,21,15,34,17.10
2018,10,21,15,35,17.10
2018,10,21,15,36,17.10
2018,10,21,15,37,17.00
2018,10,21,15,38,16.90
2018,10,21,15,39,16.80
2018,10,21,15,40,16.80
2018,10,21,15,41,16.70
2018,10,21,15,42,16.70
2018,10,21,15,43,16.60
2018,10,21,15,44,16.60
2018,10,21,15,45,16.50
2018,10,21,15,46,16.50
2018,10,21,15,47,16.50
2018,10,21,15,48,16.40
2018,10,21,15,49,16.40
2018,10,21,15,50,16.40
2018,10,21,15,51,16.40
2018,10,21,15,52,16.40
2018,10,21,15,53,16.40
2018,10,21,15,54,16.40
2018,10,21,15,55,16.40
2018,10,21,15,56,16.40
2018,10,21,15,57,16.40
2018,10,21,15,58,16.30
2018,10,21,15,59,16.30
2018,10,21,16,00,16.30
2018,10,21,16,01,16.30
2018,10,21,16,02,16.30
2018,10,21,16,03,16.30
2018,10,21,16,04,16.30
2018,10,21,16,05,16.30
2018,10,21,16,06,16.20
2018,10,21,16,07,16.20
2018,10,21,16,08,16.20
2018,10,21,16,09,16.10
2018,10,21,16,10,16.10
2018,10,21,16,11,16.10
2018,10,21,16,12,16.00
2018,10,21,16,13,16.00
2018,10,21,16,14,16.00
2018,10,21,16,15,16.00
2018,10,21,16,16,16.00
2018,10,21,16,17,16.00
2018,10,21,16,18,16.00
2018,10,21,16,19,15.90
2018,10,21,16,20,15.90
2018,10,21,16,21,15.90
2018,10,21,16,22,15.90
2018,10,21,16,23,15.90
2018,10,21,16,24,15.90
2018,10,21,16,25,15.80
2018,10,21,16,26,15.80
2018,10,21,16,27,15.80
2018,10,21,16,28,15.80
2018,10,21,16,29,15.70
2018,10,21,16,30,15.70
2018,10,21,16,31,15.70
2018,10,21,16,32,15.60
2018,10,21,16,33,15.60
2018,10,21,16,34,15.60
2018,10,21,16,35,15.60
2018,10,21,16,36,15.60
2018,10,21,16,37,15.50
2018,10,21,16,38,15.50
2018,10,21,16,39,15.50
2018,10,21,16,40,15.50
2018,10,21,16,41,15.50
2018,10,21,16,42,15.60
2018,10,21,16,43,15.60
2018,10,21,16,44,15.60
2018,10,21,16,45,15.70
2018,10,21,16,46,15.70
2018,10,21,16,47,15.70
2018,10,21,16,48,15.80
2018,10,21,16,49,15.80
2018,10,21,16,50,15.80
2018,10,21,16,51,15.80
2018,10,21,16,52,15.80
2018,10,21,16,53,15.80
2018,10,21,16,54,15.80
2018,10,21,16,55,15.80
2018,10,21,16,56,15.70
2018,10,21,16,57,15.70
2018,10,21,16,58,15.70
2018,10,21,16,59,15.70
2018,10,21,17,00,15.70
2018,10,21,17,01,15.70
2018,10,21,17,02,15.70
2018,10,21,17,03,15.70
2018,10,21,17,04,15.70
2018,10,21,17,05,15.70
2018,10,21,17,06,15.70
2018,10,21,17,07,15.70
2018,10,21,17,08,15.70
2018,10,21,17,09,15.80
2018,10,21,17,10,15.80
2018,10,21,17,11,15.80
2018,10,21,17,12,15.80
2018,10,21,17,13,15.70
2018,10,21,17,14,15.70
2018,10,21,17,15,15.60
2018,10,21,17,16,15.50
2018,10,21,17,17,15.50
2018,10,21,17,18,15.40
2018,10,21,17,19,15.30
2018,10,21,17,20,15.30
2018,10,21,17,21,15.20
2018,10,21,17,22,15.10
2018,10,21,17,23,15.10
2018,10,21,17,24,15.00
2018,10,21,17,25,14.90
2018,10,21,17,26,14.90
2018,10,21,17,27,14.80
2018,10,21,17,28,14.80
2018,10,21,17,29,14.70
2018,10,21,17,30,14.70
2018,10,21,17,31,14.70
2018,10,21,17,32,14.70
2018,10,21,17,33,14.60
2018,10,21,17,34,14.60
2018,10,21,17,35,14.50
2018,10,21,17,36,14.50
2018,10,21,17,37,14.40
2018,10,21,17,38,14.40
2018,10,21,17,39,14.30
2018,10,21,17,40,14.20
2018,10,21,17,41,14.10
2018,10,21,17,42,14.10
2018,10,21,17,43,14.00
2018,10,21,17,44,13.90
2018,10,21,17,45,13.90
2018,10,21,17,46,13.90